COSMOS 1275 DEB, 42212

Orbit data source: Space-Track

COSMOS 1275 DEB, 42212 is space debris in LEO originally from a launch on Thu, 04 Jun 1981 UTC launched from the Plesetsk Missile And Space Complex (PKMTR). Debris objects in space refer to the collection of defunct objects orbiting the Earth. Examples of debris include non-operational satellites, rocket bodies, and fragments generated from explosions, collisions, or faulty payload assembly.

Loading next visibility...
Identifier
42212, 1981-053UC
Orbit
LEO
Country
Flag of CISCIS
Related business
Manufacturer
Unknown
Mission
Spacecraft
Bus & Motor
Unknown
Mass
Unknown
Launch date (UTC)
1981-06-04 (45 years ago)
Launch vehicle
Unknown
Launch site
Plesetsk Missile And Space Complex (PKMTR)
Object type
Payload
Rocket body
Debris
Shape & HBR
Unknown shape, 0.1 m
Radar Cross Section
Small (<0.1 m²)

Expand to show TLE details & history
Last TLE update: 2 weeks ago

TLE from 2 weeks ago
0 COSMOS 1275 DEB
1 42212U 81053UC  26162.25976535  .00000830  00000-0  94551-3 0  9995
2 42212  83.0502 150.0070 0146441 296.6507  77.9001 13.64581924623197
Epoch: 2026-06-11T06:14Z
TLE epoch observation values (Epoch: 2026-06-11T06:14:03.726Z)
Latitude
16.05668°
Longitude
158.88547°
Altitude
1,000.129 km
Speed
7.363 km/s
True Right ascension
10h 08m 01s
True Declination
15° 58' 07"
Sunlit
Object was in daylight at epoch
Visualization orbit readout
Latitude
Unknown
Longitude
Unknown
Altitude
Unknown
Speed
Unknown
Apparent Right ascension
Unknown
Apparent Declination
Unknown
Sunlit
N/A
Visualization observer readout
Local Sidereal Time
21:42:22
Azimuth
Unknown
Elevation
Unknown
Doppler factor
Unknown
Orbital elements
Apogee altitude
1,124.529 km
Perigee altitude
907.961 km
Semi-major axis
7,394.382 km
Eccentricity
0.01464
Inclination
83.0502°
RAAN
150.007°
Arg. of periapsis
296.6507°
True anomaly
79.547°
Mean anomaly
77.9001°
Eccentric anomaly
78.72295°
Mean motion
3.41342 °/min
Orbital period
105.47 mins
BSTAR
0.00094551
Loading maneuver chart data...
Computing Atmospheric mass density...

Documentation

Showing up to 5 results
|